Вернуться в каталог

DELTA 1 DEB

АктивенSSO
NORAD 13535·DEBRIS·🇺🇸 United States

Запущен Jul 29, 1976 с Vandenberg Space Force Base

Loading…

Ближайшие Пролёты (ближайшие 24 часа)

TLE

СвежийSource: Space-Track

Эпоха: Sep 14, 2026, 09:35 UTC

1 13535U 76077EH  26257.39964329 -.00000033  00000-0  76218-4 0  9996
2 13535 101.7785 226.3511 0023647  99.6412  55.1425 12.39108150159840

Отслеживайте DELTA 1 DEB в реальном времени с AllMySat

Download on the App Store